FW4272 Weather Reports


Display with metric or nautical units.
time (UTC)temp
F
wind
direction
speed
MPH
gust
MPH
rain 1hr
in
rain 24hr
in
rain mn
in
humidity
%
barometer
mb
20260505021601 51 213 22.0 35.0 0.00 0.25 0.25 67 1004.8
20260505020059 50 213 26.0 39.0 0.00 0.25 0.25 66 1004.6
20260505014558 51 202 23.0 35.0 0.00 0.25 0.25 66 1004.6
20260505013054 51 227 25.0 37.0 0.00 0.25 0.25 64 1004.4
20260505011555 51 212 21.0 36.0 0.00 0.25 0.25 65 1004.1
20260505010101 52 210 17.0 26.0 0.00 0.25 0.25 63 1003.9
20260505004552 52 210 22.0 35.0 0.00 0.25 0.25 62 1004.0
20260505003049 52 207 21.0 28.0 0.00 0.25 0.25 61 1003.8
20260505001548 52 236 18.0 27.0 0.00 0.25 0.25 62 1003.5
20260505000047 52 190 17.0 32.0 0.00 0.25 0.25 60 1003.2
20260504234544 51 195 21.0 31.0 0.00 0.28 0.25 60 1002.8
20260504233044 51 214 15.0 33.0 0.00 0.28 0.25 56 1002.7
20260504231542 51 213 27.0 37.0 0.00 0.28 0.25 52 1002.9
20260504230039 52 236 23.0 32.0 0.00 0.28 0.25 50 1002.5
20260504224537 51 196 15.0 21.0 0.00 0.31 0.25 55 1002.4
20260504223036 51 231 18.0 30.0 0.00 0.31 0.25 53 1002.1
20260504221537 52 219 18.0 30.0 0.00 0.31 0.25 51 1002.1
20260504220034 52 208 18.0 28.0 0.00 0.31 0.25 51 1002.1
20260504214539 52 222 20.0 31.0 0.00 0.35 0.25 50 1002.0
20260504213031 52 212 19.0 27.0 0.00 0.35 0.25 51 1001.9
20260504211528 52 246 21.0 34.0 0.00 0.35 0.25 51 1001.8
20260504210025 51 212 19.0 33.0 0.00 0.35 0.25 53 1001.5
20260504204522 51 231 22.0 33.0 0.00 0.39 0.25 53 1001.4
20260504203019 50 219 20.0 31.0 0.00 0.39 0.25 57 1001.4
20260504201518 50 206 21.0 33.0 0.00 0.39 0.25 58 1001.1
20260504200032 50 241 22.0 35.0 0.00 0.39 0.25 60 1001.0
20260504194520 50 223 22.0 41.0 0.00 0.45 0.25 59 1000.5
20260504193013 50 226 24.0 38.0 0.00 0.45 0.25 62 1000.3
20260504191520 49 220 25.0 39.0 0.00 0.45 0.25 65 1000.3
20260504190011 48 211 26.0 35.0 0.00 0.45 0.25 68 1000.1
20260504184512 48 223 23.0 34.0 0.00 0.48 0.25 72 999.9
20260504183111 48 241 25.0 37.0 0.00 0.48 0.25 72 999.8
20260504181501 48 241 26.0 40.0 0.00 0.48 0.25 73 999.5
20260504180059 47 225 31.0 42.0 0.00 0.48 0.25 74 999.4
20260504174606 47 236 31.0 43.0 0.00 0.48 0.25 76 999.2
20260504173057 45 241 26.0 41.0 0.00 0.48 0.25 79 999.0
20260504171550 45 223 29.0 39.0 0.00 0.48 0.25 80 998.8
20260504081513 37 214 24.0 38.0 0.00 0.37 0.14 94 980.0
20260504050012 39 318 9.0 13.0 0.02 0.24 0.02 91 975.4
20260504044517 39 340 8.0 11.0 0.01 0.24 0.01 90 975.7
20260504043102 40 350 6.0 9.0 0.00 0.23 0.00 89 975.7
20260504041554 40 2 6.0 9.0 0.00 0.23 0.00 88 975.9
20260504040100 41 40 5.0 9.0 0.00 0.23 0.00 87 976.1
20260504034555 41 58 4.0 7.0 0.00 0.23 0.00 87 976.4
20260504033031 41 49 7.0 14.0 0.00 0.23 0.00 87 976.6
20260504031525 41 102 8.0 17.0 0.00 0.23 0.00 87 977.0
20260504030035 42 86 11.0 21.0 0.00 0.23 0.00 87 977.5
20260504024514 42 127 7.0 18.0 0.00 0.23 0.23 86 978.0
20260504023008 43 88 8.0 17.0 0.00 0.23 0.23 85 978.4